AI4ZL Weather Reports


Display with metric or nautical units.
time (UTC)temp
F
wind
direction
speed
MPH
gust
MPH
rain 1hr
in
rain 24hr
in
rain mn
in
humidity
%
barometer
mb
20260502220019 61 335 1.0 3.0 0.00 0.00 0.00 63 1019.6
20260502215024 62 24 1.0 3.0 0.00 0.00 0.00 59 1019.4
20260502214029 61 348 2.0 6.0 0.00 0.00 0.00 60 1019.3
20260502213058 62 350 2.0 10.0 0.00 0.00 0.00 59 1019.4
20260502212042 64 217 1.0 4.0 0.00 0.00 0.00 56 1019.2
20260502211026 64 333 2.0 4.0 0.00 0.00 0.00 56 1019.2
20260502210033 63 276 1.0 3.0 0.00 0.00 0.00 57 1019.3
20260502205019 62 43 1.0 3.0 0.00 0.00 0.00 62 1019.3
20260502204024 61 300 2.0 7.0 0.00 0.00 0.00 62 1019.5
20260502203029 62 289 2.0 4.0 0.00 0.00 0.00 59 1019.5
20260502202119 63 345 1.0 3.0 0.00 0.00 0.00 62 1019.1
20260502201023 62 200 2.0 6.0 0.00 0.00 0.00 63 1019.1
20260502200027 61 328 1.0 6.0 0.00 0.00 0.00 65 1019.4
20260502195032 60 315 3.0 11.0 0.00 0.00 0.00 64 1019.4
20260502194021 61 302 4.0 10.0 0.00 0.00 0.00 61 1019.1
20260502193025 64 269 2.0 4.0 0.00 0.00 0.00 58 1018.8
20260502192031 65 332 3.0 11.0 0.00 0.00 0.00 54 1018.6
20260502191018 63 325 1.0 8.0 0.00 0.00 0.00 57 1018.5
20260502190023 65 317 3.0 8.0 0.00 0.00 0.00 52 1018.4
20260502185028 64 329 6.0 13.0 0.00 0.00 0.00 41 1018.0
20260502184016 66 310 5.0 11.0 0.00 0.00 0.00 43 1017.9
20260502182027 67 307 4.0 9.0 0.00 0.00 0.00 37 1017.9
20260502181052 66 296 8.0 11.0 0.00 0.00 0.00 40 1018.1
20260502164025 64 243 5.0 13.0 0.00 0.00 0.00 56 1018.7
20260502163029 62 271 4.0 9.0 0.00 0.00 0.00 57 1018.8
20260502162039 62 244 3.0 9.0 0.00 0.00 0.00 58 1019.0
20260502161023 61 256 5.0 10.0 0.00 0.00 0.00 58 1019.0
20260502152030 60 266 1.0 7.0 0.00 0.00 0.00 60 1019.2
20260502151019 59 267 1.0 6.0 0.00 0.00 0.00 64 1019.0
20260502123029 47 0.0 0.0 0.00 0.00 0.00 99 1019.0
20260502122017 44 0.0 0.0 0.00 0.00 0.00 99 1019.0
20260502121022 43 0.0 0.0 0.00 0.00 0.00 99 1018.8
20260502115034 42 0.0 0.0 0.00 0.00 0.00 99 1018.6
20260502114021 41 0.0 0.0 0.00 0.00 0.00 99 1018.5
20260502113025 41 0.0 0.0 0.00 0.00 0.00 99 1018.5
20260502112030 41 0.0 0.0 0.00 0.00 0.00 99 1018.3
20260502111018 41 0.0 0.0 0.00 0.00 0.00 99 1018.3
20260502110024 41 0.0 0.0 0.00 0.00 0.00 99 1018.5
20260502105028 42 0.0 0.0 0.00 0.00 0.00 99 1018.3
20260502104016 42 0.0 0.0 0.00 0.00 0.00 99 1018.3
20260502103021 42 0.0 0.0 0.00 0.00 0.00 99 1018.2
20260502102027 41 0.0 0.0 0.00 0.00 0.00 99 1018.2
20260502101031 41 0.0 0.0 0.00 0.00 0.00 99 1018.2
20260502091027 42 0.0 0.0 0.00 0.00 0.00 99 1018.0
20260502071019 43 0.0 0.0 0.00 0.00 0.00 98 1018.5
20260502070024 43 0.0 0.0 0.00 0.00 0.00 98 1018.4
20260502065028 43 0.0 0.0 0.00 0.00 0.00 98 1018.3
20260502064016 44 0.0 0.0 0.00 0.00 0.00 98 1018.6
20260502063022 44 0.0 0.0 0.00 0.00 0.00 97 1018.7
20260502062027 44 0.0 0.0 0.00 0.00 0.00 97 1018.8
20260502061031 44 0.0 0.0 0.00 0.00 0.00 97 1018.7
20260502060019 44 0.0 0.0 0.00 0.00 0.00 97 1018.7
20260502055024 44 0.0 0.0 0.00 0.00 0.00 96 1018.6
20260502054029 44 0.0 0.0 0.00 0.00 0.00 96 1018.6
20260502053017 44 0.0 0.0 0.00 0.00 0.00 95 1018.6
20260502052022 44 0.0 0.0 0.00 0.00 0.00 95 1018.5
20260502051048 45 0.0 0.0 0.00 0.00 0.00 94 1018.4
20260502050032 45 0.0 0.0 0.00 0.00 0.00 94 1018.5
20260502045020 45 0.0 0.0 0.00 0.00 0.00 93 1018.5
20260502044025 45 0.0 0.0 0.00 0.00 0.00 92 1018.6
20260502043030 46 0.0 0.0 0.00 0.00 0.00 92 1018.6
20260502042018 46 0.0 0.0 0.00 0.00 0.00 91 1018.8
20260502041023 45 0.0 0.0 0.00 0.00 0.00 90 1018.8
20260502040029 45 0.0 0.0 0.00 0.00 0.00 89 1019.0
20260502035016 46 0.0 0.0 0.00 0.00 0.00 88 1019.1
20260502034102 46 0.0 0.0 0.00 0.00 0.00 87 1019.3
20260502033026 46 0.0 0.0 0.00 0.00 0.00 87 1019.2
20260502032031 47 0.0 0.0 0.00 0.00 0.00 86 1019.4
20260502031019 47 0.0 0.0 0.00 0.00 0.00 85 1019.5
20260502030024 47 0.0 0.0 0.00 0.00 0.00 83 1019.5
20260502025049 47 0.0 0.0 0.00 0.00 0.00 80 1019.4
20260502024037 48 0.0 0.0 0.00 0.00 0.00 80 1019.4
20260502023022 49 0.0 0.0 0.00 0.00 0.00 82 1019.4
20260502022027 50 0.0 0.0 0.00 0.00 0.00 81 1019.3
20260502021032 49 0.0 0.0 0.00 0.00 0.00 76 1019.1
20260502020020 49 0.0 0.0 0.00 0.00 0.00 73 1019.0
20260502015024 50 0.0 0.0 0.00 0.00 0.00 70 1019.2
20260502014030 51 0.0 0.0 0.00 0.00 0.00 67 1019.0
20260502013039 52 0.0 0.0 0.00 0.00 0.00 64 1018.8
20260502012022 53 0.0 0.0 0.00 0.00 0.00 61 1018.6
20260502011028 54 0.0 0.0 0.00 0.00 0.00 57 1018.4
20260502010033 55 0.0 0.0 0.00 0.00 0.00 55 1018.4
20260502005040 57 325 0.0 1.0 0.00 0.00 0.00 51 1018.3
20260502004025 58 0.0 1.0 0.00 0.00 0.00 48 1018.1
20260502003030 59 323 0.0 1.0 0.00 0.00 0.00 48 1017.9
20260502002018 60 343 0.0 2.0 0.00 0.00 0.00 45 1018.0
20260502001023 61 334 1.0 1.0 0.00 0.00 0.00 44 1017.8
20260502000028 62 258 0.0 3.0 0.00 0.00 0.00 44 1017.6
20260501235054 62 335 1.0 2.0 0.00 0.00 0.00 43 1017.3
20260501234102 63 330 1.0 3.0 0.00 0.00 0.00 41 1017.2
20260501233026 62 323 1.0 4.0 0.00 0.00 0.00 42 1017.3
20260501232031 63 307 2.0 3.0 0.00 0.00 0.00 41 1017.5
20260501231019 65 297 1.0 3.0 0.00 0.00 0.00 40 1017.4
20260501230024 64 279 1.0 3.0 0.00 0.00 0.00 40 1017.1
20260501225029 64 345 2.0 6.0 0.00 0.00 0.00 41 1016.7
20260501224017 64 355 2.0 7.0 0.00 0.00 0.00 40 1016.4
20260501223022 66 321 2.0 7.0 0.00 0.00 0.00 38 1016.5
20260501222027 66 278 2.0 4.0 0.00 0.00 0.00 39 1016.3
20260501221032 66 48 1.0 3.0 0.00 0.00 0.00 40 1016.5